Content
SEND FEEDBACK

Daily
Averages
Monthly
Summary
United States of America

ST. LOUIS - MEMORIAL PLAZA, MISSOURI


Home > North America > United States > Missouri
Elevation: 620 feet     Latitude: 38 38N     Longitude: 090 12W

WEATHER
 
SELECT A DAY
Number of Records: 190,056;   Date Range: 1/1/95 - 11/26/14
 
SHARE

PRINT THIS DATA

[ ← Previous Day ]
WEATHER ALMANAC - MAY 12, 2013
[ Next Day → ]
[ °C ]   °F
Weather ElementAverageHighLow
Temperature52.3 °F62.1 °F (4:53 pm)39.9 °F (5:53 am)
Dewpoint30.8 °F37.9 °F (11:53 pm)27 °F (1:53 am)
Humidity46.5 %85 % (11:53 pm)29 % (2:53 pm)
Barometer30.19 in30.24 in (9:53 am)30.15 in (5:53 pm)
Wind Speed8 mph16.1 mph (3:53 pm)
Wind Gust21.9 mph (11:53 am)
Weather ElementAverage
Visibility10 mi
Wind DirectionW (265.2 °)

Weather ElementTotal
Precipitation---
Heating Degree Days14 (Base 65)
Growing Degree Days1 (Base 50)
Averaged from 23 records on May 12, 2013
WEATHER CONDITIONS BREAKOUT
WIND DIRECTION BREAKOUT
WEATHER BY HOUR - MAY 12, 2013
[ °C ]   °F
Local TimeTemperatureDewpointHumidityBarometerVisibilityWind DirectionWind SpeedGust SpeedPrecipitationEventsConditions
1:53 AM48.9 °F27.0 °F43 %30.17 in10.0 miNNW (330°)9.2 mphClear
2:53 AM46.0 °F27.0 °F47 %30.16 in10.0 miNW (320°)6.9 mphClear
3:53 AM45.0 °F28.9 °F53 %30.17 in10.0 miWest (270°)5.8 mphClear
4:53 AM43.0 °F30.9 °F62 %30.18 in10.0 miWest (260°)4.6 mphClear
5:53 AM39.9 °F33.1 °F77 %30.19 in10.0 miWNW (290°)3.5 mphClear
6:53 AM44.1 °F35.1 °F71 %30.21 in10.0 miWNW (300°)5.8 mphClear
7:53 AM50.0 °F33.1 °F52 %30.22 in10.0 miWNW (300°)6.9 mphClear
8:53 AM52.0 °F30.9 °F45 %30.22 in10.0 miWNW (300°)6.9 mphClear
9:53 AM55.0 °F28.9 °F37 %30.24 in10.0 miNW (310°)9.2 mphClear
10:53 AM55.9 °F28.0 °F34 %30.24 in10.0 miNW (310°)13.8 mph19.6 mphClear
11:53 AM57.0 °F30.9 °F37 %30.24 in10.0 miWNW (300°)13.8 mph21.9 mphClear
12:53 PM59.0 °F28.0 °F31 %30.22 in10.0 miNW (320°)15.0 mph20.7 mphClear
1:53 PM60.1 °F30.0 °F32 %30.21 in10.0 miWNW (290°)13.8 mphClear
2:53 PM61.0 °F28.0 °F29 %30.19 in10.0 miNW (320°)8.1 mph16.1 mphClear
3:53 PM61.0 °F28.9 °F30 %30.18 in10.0 miNW (310°)16.1 mphClear
4:53 PM62.1 °F30.0 °F30 %30.17 in10.0 miNNW (330°)16.1 mph20.7 mphClear
5:53 PM62.1 °F33.1 °F34 %30.15 in10.0 miNW (320°)8.1 mphClear
6:53 PM59.0 °F30.0 °F33 %30.15 in10.0 miNW (310°)9.2 mphClear
7:53 PM53.1 °F30.9 °F43 %30.16 in10.0 miNW (310°)6.9 mphClear
8:53 PM53.1 °F30.0 °F41 %30.17 in10.0 miWNW (300°)4.6 mphClear
9:53 PM48.9 °F30.9 °F50 %30.18 in10.0 miCalmClear
10:53 PM45.0 °F37.0 °F74 %30.19 in10.0 miCalmClear
11:53 PM42.1 °F37.9 °F85 %30.18 in10.0 miCalmClear
Hourly data recorded from KCPS, located miles away from St. Louis - Memorial Plaza, Missouri







STORIES FROM OUR PARTNERS